Starlink 32870

operational
NORAD ID: 63018 Int'l Des: 2025-032 Owner: SPXS Country: US Constellation: starlink
LEOCIRCULAR

Über Starlink 32870

Beschreibung wird geladen...

Live-Position

3D-Globus wird geladen...

Nächste Überflüge

Höhenverlauf

Altitude vs Time

uPlot chart will show altitude changes over time

Zweizeiliger Elementsatz

1 63018U 25032P 25259.98721454 .00024149 00000-0 88402-3 0 9998
2 63018 43.0031 237.0986 0001194 271.5915 88.4800 15.27586591 34050
Epoch: 16. Sept. 2025 • Age: 15 hours

Aktueller Status

Höhe 485.1 km
Geschwindigkeit 7.62 km/s
Subsatellitenpunkt -13.06°S, 149.16°W
Startdatum 15. Feb. 2025
Alter 0.5 years
Typ internet

Technische Details

Klassifizierung Payload
Masse 730.00 kg
Trockenmasse 700.00 kg
Gesamtmasse 730.00 kg
Länge 0.30 m
Durchmesser 4.10 m
Spannweite 29.00 m
Form Box + pan
Hersteller SPXS
Bus-Typ Starlink V2M
Phasenstatus In Orbit
Besitzer/Staat SPXS/US

Große Konstellationen

Loading constellations...